| time (UTC) | temp F | wind direction | speed MPH | gust MPH | rain 1hr in | rain 24hr in | rain mn in | humidity % | barometer mb |
| 20260503015937 | 52 | 247 | 0.0 | 1.0 | 0.00 | 0.00 | 0.00 | 63 | 1008.7 |
| 20260503014437 | 51 | 225 | 0.0 | 0.0 | 0.00 | 0.00 | 0.00 | 63 | 1008.8 |
| 20260503012937 | 53 | 225 | 0.0 | 1.0 | 0.00 | 0.00 | 0.00 | 61 | 1008.7 |
| 20260503011438 | 53 | 247 | 0.0 | 1.0 | 0.00 | 0.00 | 0.00 | 61 | 1008.7 |
| 20260503005938 | 53 | 247 | 0.0 | 0.0 | 0.00 | 0.00 | 0.00 | 60 | 1008.9 |
| 20260503004438 | 54 | 225 | 0.0 | 0.0 | 0.00 | 0.00 | 0.00 | 60 | 1009.1 |
| 20260503002938 | 53 | 225 | 0.0 | 2.0 | 0.00 | 0.00 | 0.00 | 62 | 1009.0 |
| 20260503001438 | 51 | 225 | 0.0 | 0.0 | 0.00 | 0.00 | 0.00 | 65 | 1009.0 |
| 20260502235938 | 50 | 225 | 0.0 | 0.0 | 0.00 | 0.00 | 0.00 | 64 | 1009.2 |
| 20260502234438 | 50 | 202 | 0.0 | 0.0 | 0.00 | 0.00 | 0.00 | 64 | 1009.2 |
| 20260502232938 | 50 | 202 | 0.0 | 0.0 | 0.00 | 0.00 | 0.00 | 64 | 1009.3 |
| 20260502231438 | 50 | 225 | 0.0 | 0.0 | 0.00 | 0.00 | 0.00 | 61 | 1009.4 |
| 20260502225938 | 50 | 225 | 0.0 | 0.0 | 0.00 | 0.00 | 0.00 | 60 | 1009.4 |
| 20260502224438 | 50 | 225 | 0.0 | 0.0 | 0.00 | 0.00 | 0.00 | 59 | 1009.5 |
| 20260502222938 | 51 | 225 | 0.0 | 0.0 | 0.00 | 0.00 | 0.00 | 58 | 1009.5 |
| 20260502221438 | 52 | 225 | 0.0 | 0.0 | 0.00 | 0.00 | 0.00 | 55 | 1009.5 |
| 20260502215938 | 53 | 225 | 0.0 | 0.0 | 0.00 | 0.00 | 0.00 | 55 | 1009.5 |
| 20260502214438 | 54 | 225 | 0.0 | 0.0 | 0.00 | 0.00 | 0.00 | 53 | 1009.6 |
| 20260502212938 | 54 | 225 | 0.0 | 0.0 | 0.00 | 0.00 | 0.00 | 53 | 1009.7 |
| 20260502211438 | 55 | 225 | 0.0 | 0.0 | 0.00 | 0.00 | 0.00 | 53 | 1009.6 |
| 20260502205938 | 55 | 247 | 0.0 | 0.0 | 0.00 | 0.00 | 0.00 | 51 | 1009.5 |
| 20260502204438 | 55 | 247 | 0.0 | 0.0 | 0.00 | 0.00 | 0.00 | 51 | 1009.7 |
| 20260502202938 | 55 | 247 | 0.0 | 0.0 | 0.00 | 0.00 | 0.00 | 51 | 1009.6 |
| 20260502201438 | 55 | 247 | 0.0 | 0.0 | 0.00 | 0.00 | 0.00 | 50 | 1009.7 |
| 20260502195938 | 57 | 247 | 0.0 | 0.0 | 0.00 | 0.00 | 0.00 | 47 | 1009.6 |
| 20260502194438 | 58 | 247 | 0.0 | 0.0 | 0.00 | 0.00 | 0.00 | 46 | 1009.8 |
| 20260502192938 | 57 | 225 | 0.0 | 0.0 | 0.00 | 0.00 | 0.00 | 46 | 1009.8 |
| 20260502191438 | 58 | 225 | 0.0 | 0.0 | 0.00 | 0.00 | 0.00 | 44 | 1009.9 |
| 20260502185938 | 59 | 225 | 0.0 | 0.0 | 0.00 | 0.00 | 0.00 | 44 | 1009.8 |
| 20260502184438 | 61 | 225 | 0.0 | 0.0 | 0.00 | 0.00 | 0.00 | 39 | 1009.7 |
| 20260502182938 | 63 | 225 | 0.0 | 0.0 | 0.00 | 0.00 | 0.00 | 37 | 1009.7 |
| 20260502181438 | 66 | 225 | 0.0 | 0.0 | 0.00 | 0.00 | 0.00 | 35 | 1009.8 |
| 20260502162938 | 82 | 135 | 0.0 | 2.0 | 0.00 | 0.00 | 0.00 | 25 | 1010.3 |
| 20260502161438 | 84 | 247 | 0.0 | 2.0 | 0.00 | 0.00 | 0.00 | 24 | 1010.5 |
| 20260502151439 | 86 | 247 | 1.0 | 8.0 | 0.00 | 0.00 | 0.00 | 22 | 1011.3 |
| 20260502122939 | 85 | 292 | 5.0 | 5.0 | 0.00 | 0.00 | 0.00 | 23 | 1013.3 |
| 20260502121439 | 86 | 202 | 0.0 | 4.0 | 0.00 | 0.00 | 0.00 | 23 | 1013.4 |
| 20260502114439 | 86 | 270 | 1.0 | 4.0 | 0.00 | 0.00 | 0.00 | 21 | 1013.8 |
| 20260502112939 | 86 | 292 | 6.0 | 6.0 | 0.00 | 0.00 | 0.00 | 22 | 1014.0 |
| 20260502111439 | 87 | 247 | 0.0 | 1.0 | 0.00 | 0.00 | 0.00 | 22 | 1014.1 |
| 20260502105939 | 89 | 247 | 0.0 | 3.0 | 0.00 | 0.00 | 0.00 | 22 | 1014.2 |
| 20260502104439 | 86 | 270 | 0.0 | 3.0 | 0.00 | 0.00 | 0.00 | 22 | 1014.4 |
| 20260502102939 | 87 | 247 | 3.0 | 3.0 | 0.00 | 0.00 | 0.00 | 22 | 1014.5 |
| 20260502101439 | 86 | 225 | 0.0 | 0.0 | 0.00 | 0.00 | 0.00 | 23 | 1014.7 |
| 20260502091439 | 83 | 225 | 6.0 | 6.0 | 0.00 | 0.00 | 0.00 | 26 | 1015.1 |
| 20260502071439 | 77 | 270 | 1.0 | 5.0 | 0.00 | 0.00 | 0.00 | 33 | 1015.8 |
| 20260502065939 | 75 | 225 | 4.0 | 4.0 | 0.00 | 0.00 | 0.00 | 35 | 1015.7 |
| 20260502064439 | 77 | 247 | 2.0 | 4.0 | 0.00 | 0.00 | 0.00 | 35 | 1015.6 |
| 20260502062939 | 75 | 247 | 1.0 | 1.0 | 0.00 | 0.00 | 0.00 | 38 | 1015.6 |
| 20260502061334 | 69 | 225 | 1.0 | 3.0 | 0.00 | 0.00 | 0.00 | 42 | 1015.7 |
| 20260502055834 | 68 | 247 | 4.0 | 4.0 | 0.00 | 0.00 | 0.00 | 45 | 1015.8 |
| 20260502054334 | 66 | 225 | 0.0 | 0.0 | 0.00 | 0.00 | 0.00 | 49 | 1015.7 |
| 20260502052834 | 59 | 225 | 0.0 | 0.0 | 0.00 | 0.00 | 0.00 | 60 | 1015.9 |
| 20260502051334 | 54 | 225 | 0.0 | 2.0 | 0.00 | 0.00 | 0.00 | 65 | 1015.8 |
| 20260502045834 | 53 | 247 | 2.0 | 2.0 | 0.00 | 0.00 | 0.00 | 65 | 1015.9 |
| 20260502044334 | 59 | 270 | 0.0 | 0.0 | 0.00 | 0.00 | 0.00 | 65 | 1015.9 |
| 20260502042834 | 48 | 270 | 0.0 | 0.0 | 0.00 | 0.00 | 0.00 | 83 | 1015.8 |
| 20260502041334 | 41 | 270 | 0.0 | 0.0 | 0.00 | 0.00 | 0.00 | 86 | 1015.9 |
| 20260502035834 | 40 | 270 | 0.0 | 0.0 | 0.00 | 0.00 | 0.00 | 86 | 1015.8 |
| 20260502034334 | 40 | 315 | 0.0 | 0.0 | 0.00 | 0.00 | 0.00 | 85 | 1015.7 |
| 20260502032834 | 39 | 315 | 0.0 | 0.0 | 0.00 | 0.00 | 0.00 | 85 | 1015.8 |
| 20260502031334 | 39 | 315 | 0.0 | 0.0 | 0.00 | 0.00 | 0.00 | 85 | 1015.8 |
| 20260502025834 | 39 | 0 | 0.0 | 0.0 | 0.00 | 0.00 | 0.00 | 84 | 1015.8 |
| 20260502024334 | 39 | 0 | 0.0 | 0.0 | 0.00 | 0.00 | 0.00 | 84 | 1015.9 |
| 20260502022834 | 39 | 0 | 0.0 | 0.0 | 0.00 | 0.00 | 0.00 | 84 | 1015.9 |
| 20260502021334 | 39 | 0 | 0.0 | 0.0 | 0.00 | 0.00 | 0.00 | 83 | 1016.0 |